This is the latest recevied weather packets stored in our database for station/object KG7BDA. If no packets are shown the sender has not sent any weather packets the latest 10 day(s).
| Time | Temp. | Humidity | Pressure | Rain* | Wind** | Luminosity | Snow |
|---|---|---|---|---|---|---|---|
| 1778017521 | 22.22° C | 34% | 1010 hPa | 0 mm | - | - | - |
| 1778017161 | 22.22° C | 33% | 1010.1 hPa | 0 mm | - | - | - |
| 1778016801 | 22.22° C | 33% | 1010.1 hPa | 0 mm | - | - | - |
| 1778016441 | 22.22° C | 34% | 1010.3 hPa | 0 mm | - | - | - |
| 1778016081 | 21.67° C | 34% | 1010.3 hPa | 0 mm | - | - | - |
| 1778015720 | 21.67° C | 35% | 1010.3 hPa | 0 mm | - | - | - |
| 1778015361 | 21.67° C | 33% | 1010.3 hPa | 0 mm | - | - | - |
| 1778015001 | 21.67° C | 33% | 1010.3 hPa | 0 mm | - | - | - |
| 1778014641 | 22.22° C | 33% | 1010.5 hPa | 0 mm | - | - | - |
| 1778014323 | 21.67° C | 34% | 1010.5 hPa | 0 mm | - | - | - |
| 1778014281 | 21.67° C | 34% | 1010.5 hPa | 0 mm | - | - | - |
| 1778013561 | 21.11° C | 35% | 1010.7 hPa | 0 mm | - | - | - |
| 1778013201 | 21.11° C | 33% | 1010.7 hPa | 0 mm | - | - | - |
| 1778012841 | 21.11° C | 35% | 1010.7 hPa | 0 mm | - | - | - |
| 1778012480 | 21.11° C | 36% | 1010.8 hPa | 0 mm | - | - | - |
| 1778012121 | 20.56° C | 37% | 1010.9 hPa | 0 mm | - | - | - |
| 1778011761 | 20.56° C | 35% | 1011.1 hPa | 0 mm | - | - | - |
| 1778011401 | 20.56° C | 37% | 1010.9 hPa | 0 mm | - | - | - |
| 1778011151 | 20.56° C | 36% | 1011 hPa | 0 mm | - | - | - |
| 1778011040 | 20.56° C | 36% | 1011 hPa | 0 mm | - | - | - |
| 1778010725 | 21.11° C | 36% | 1011 hPa | 0 mm | - | - | - |
| 1778010681 | 21.11° C | 36% | 1011 hPa | 0 mm | - | - | - |
| 1778010321 | 20.56° C | 36% | 1011.2 hPa | 0 mm | - | - | - |
| 1778009960 | 20.56° C | 39% | 1011.1 hPa | 0 mm | - | - | - |
| 1778009447 | 20.56° C | 37% | 1011.2 hPa | 0 mm | - | - | - |
* Rain latest hour (hover to see other rain measurements)
** Current wind speed in m/s (hover to see current wind gust speed)